DW9615 Home Hill AU current weather conditions

sailwx.info

Wind from 033 at 3 knots gusting 11

Air temperature 28.3° C
Dewpoint 14.9° C

Last reported at 2015-May-05 05:38 UTC.
Time now 2015-May-05 06:12 UTC

Location: S 19°40' E 147°25'.
View on Google Maps.

See reports from other nearby stations

  
Tides and Currents Weather Stations Pressure Air Temp Water Temp Dewpoint Dewpoint Depression Visibility Wind Speed Wind Dir Waves Ship Positions
date/time (UTC)wind fromknots sea level pressurealtimeterstation pressurevisibilityair tempwater tempwave heightnotes
2015-May-05 05:38 033 3 gusting 11 28.3
2015-May-05 05:23 050 4 gusting 10 28.3
2015-May-05 05:08 019 2 gusting 8 28.9
2015-May-05 04:53 076 4 gusting 10 28.9
2015-May-05 04:38 044 4 gusting 9 28.9
2015-May-05 04:23 318 1 gusting 12 28.9
2015-May-05 04:09 039 5 gusting 10 28.9
2015-May-05 03:52 006 1 gusting 11 29.4
2015-May-05 03:37 045 3 gusting 7 30.0
2015-May-05 03:22 316 3 gusting 6 29.4
2015-May-05 03:07 098 2 gusting 6 30.0
2015-May-05 02:52 136 2 gusting 6 30.0
2015-May-05 02:37 039 2 gusting 7 29.4
2015-May-05 02:22 066 0 gusting 6 29.4
2015-May-05 02:07 170 1 gusting 6 28.9
2015-May-05 01:52 033 0 gusting 4 28.9
2015-May-05 01:37 107 0 gusting 7 28.3
2015-May-05 01:22 091 0 gusting 3 28.3
2015-May-05 01:07 121 0 gusting 6 27.8
2015-May-05 00:52 026 0 gusting 2 27.8
2015-May-05 00:37 027 0 gusting 6 27.2
2015-May-05 00:22 086 0 gusting 6 26.7
2015-May-05 00:07 165 0 gusting 2 27.2
2015-May-04 23:52 150 0 gusting 3 26.1
2015-May-04 23:37 175 0 gusting 3 26.1
2015-May-04 23:22 239 1 gusting 2 25.6
2015-May-04 23:07 219 24.4
2015-May-04 22:51 175 0 gusting 4 23.9
2015-May-04 22:36 180 0 gusting 2 22.8
2015-May-04 22:21 251 0 gusting 2 22.2
2015-May-04 22:06 215 21.1
2015-May-04 21:51 264 0 gusting 3 20.0
2015-May-04 21:36 231 0 gusting 2 18.9
2015-May-04 21:21 263 17.8
2015-May-04 21:06 265 0 gusting 2 17.2
2015-May-04 20:51 246 16.1
2015-May-04 20:36 235 16.1
2015-May-04 20:21 233 16.1
2015-May-04 20:06 233 16.1
2015-May-04 19:51 039 16.1
2015-May-04 19:36 039 16.7
2015-May-04 19:21 039 16.1
2015-May-04 19:06 039 16.7
2015-May-04 18:51 039 16.7
2015-May-04 18:36 039 16.7
2015-May-04 18:21 039 16.7
2015-May-04 18:06 039 16.7
2015-May-04 17:51 039 16.7
2015-May-04 17:36 039 17.2
2015-May-04 17:21 039 17.2
2015-May-04 17:06 039 17.2
2015-May-04 16:51 039 17.2
2015-May-04 16:36 048 17.8
2015-May-04 16:21 049 17.8
2015-May-04 16:06 049 17.8
2015-May-04 15:50 049 17.8
2015-May-04 15:35 049 17.8
2015-May-04 15:20 049 17.8
2015-May-04 15:05 049 17.8
2015-May-04 14:50 049 17.8
2015-May-04 14:35 049 17.8
2015-May-04 14:20 049 17.8
2015-May-04 14:05 049 18.3
2015-May-04 13:50 049 18.3
2015-May-04 13:35 048 18.3
2015-May-04 13:20 048 18.3
2015-May-04 13:05 048 18.3
2015-May-04 12:50 048 18.3
2015-May-04 12:35 048 18.3
2015-May-04 12:20 048 18.9
2015-May-04 12:05 048 18.9
2015-May-04 11:51 048 19.4
2015-May-04 11:36 048 19.4
2015-May-04 11:21 048 20.0
2015-May-04 11:06 048 20.0
2015-May-04 10:51 047 20.6
2015-May-04 10:36 054 21.1
2015-May-04 10:21 054 21.7
2015-May-04 10:06 054 22.2
2015-May-04 09:51 054 22.8
2015-May-04 09:36 054 22.8
2015-May-04 09:21 053 23.3
2015-May-04 09:06 054 23.3
2015-May-04 08:51 054 23.9
2015-May-04 08:36 046 0 gusting 2 23.9
2015-May-04 08:21 050 1 gusting 3 23.9
2015-May-04 08:06 044 0 gusting 3 24.4
2015-May-04 07:51 056 1 gusting 4 25.0
2015-May-04 07:36 006 25.6
2015-May-04 07:21 045 1 gusting 6 26.1
2015-May-04 07:06 041 1 gusting 7 26.7
2015-May-04 06:51 012 4 gusting 7 27.2
2015-May-04 06:36 039 2 gusting 6 27.2
2015-May-04 06:21 352 1 gusting 8 27.2
2015-May-04 06:06 044 5 gusting 8 27.2
2015-May-04 05:51 019 4 gusting 11 27.8
2015-May-04 05:36 040 5 gusting 13 27.8
2015-May-04 05:21 087 6 gusting 12 27.8
2015-May-04 05:06 069 5 gusting 13 28.3
2015-May-04 04:51 055 6 gusting 12 27.8
2015-May-04 04:05 040 3 gusting 10 28.9
2015-May-04 03:50 040 2 gusting 11 28.9
2015-May-04 03:35 053 5 gusting 9 28.9
2015-May-04 03:20 073 5 gusting 8 28.9
2015-May-04 03:05 063 4 gusting 7 28.9
2015-May-04 02:50 033 2 gusting 8 28.9
2015-May-04 02:35 055 3 gusting 8 28.9
2015-May-04 02:20 058 2 gusting 9 28.9
2015-May-04 02:05 088 2 gusting 7 28.9
2015-May-04 01:50 067 2 gusting 6 28.9
2015-May-04 01:35 311 0 gusting 6 28.9
2015-May-04 01:20 341 0 gusting 6 28.3
2015-May-04 01:05 036 1 gusting 4 28.3
2015-May-04 00:50 143 1 gusting 3 27.2
2015-May-04 00:35 152 1 gusting 4 27.2
2015-May-04 00:20 054 3 gusting 6 27.8
2015-May-04 00:05 330 0 gusting 6 27.8
2015-May-03 23:50 085 1 gusting 3 27.2
2015-May-03 23:35 075 2 gusting 5 26.7
2015-May-03 23:20 057 0 gusting 3 26.7
2015-May-03 23:04 161 0 gusting 2 26.1
2015-May-03 22:49 096 1 gusting 3 25.0
2015-May-03 22:34 092 1 gusting 3 23.9
2015-May-03 22:19 120 0 gusting 3 23.3
2015-May-03 22:04 157 22.2
2015-May-03 21:49 157 21.1
2015-May-03 21:34 157 0 gusting 2 20.0
2015-May-03 21:19 157 0 gusting 1 19.4
2015-May-03 21:04 157 0 gusting 1 18.3
2015-May-03 20:49 157 0 gusting 2 17.8
2015-May-03 20:34 157 17.2
2015-May-03 20:19 157 17.2
2015-May-03 20:04 157 17.2
2015-May-03 19:49 157 17.2
2015-May-03 19:34 157 17.2
2015-May-03 19:19 157 17.2
2015-May-03 19:04 157 17.2
2015-May-03 18:49 157 17.8
2015-May-03 18:34 157 17.8
2015-May-03 18:19 157 17.8
2015-May-03 18:04 157 17.8
2015-May-03 17:48 157 17.8
2015-May-03 17:33 157 17.8
2015-May-03 17:18 157 17.8
2015-May-03 17:03 141 17.8
2015-May-03 16:48 141 17.8
2015-May-03 16:33 141 17.8
2015-May-03 16:18 141 17.8
2015-May-03 16:03 141 18.3
2015-May-03 15:48 141 18.3
2015-May-03 15:34 141 18.3
2015-May-03 15:18 141 18.9
2015-May-03 15:03 141 18.9
2015-May-03 14:48 141 18.9
2015-May-03 14:33 141 18.9
2015-May-03 14:18 141 18.9
2015-May-03 14:03 141 18.9
2015-May-03 13:48 141 18.9
2015-May-03 13:33 141 19.4
2015-May-03 13:18 141 19.4
2015-May-03 13:03 141 19.4
2015-May-03 12:48 129 19.4
2015-May-03 12:33 129 20.0
2015-May-03 12:18 129 20.0
2015-May-03 12:03 129 19.4
2015-May-03 11:48 129 20.0
2015-May-03 11:33 129 20.0
2015-May-03 11:18 129 0 gusting 2 20.0
2015-May-03 11:03 079 20.6
2015-May-03 10:48 347 0 gusting 1 21.1
2015-May-03 10:33 346 21.7
2015-May-03 10:18 346 22.2
2015-May-03 10:03 346 22.2
2015-May-03 09:48 346 22.2
2015-May-03 09:33 346 22.8
2015-May-03 09:18 346 23.3
2015-May-03 09:03 346 23.3
2015-May-03 08:48 346 23.9
2015-May-03 08:33 342 24.4
2015-May-03 08:18 027 25.0
2015-May-03 08:03 013 0 gusting 2 25.0
2015-May-03 07:48 021 25.6
2015-May-03 07:33 349 0 gusting 3 26.1
2015-May-03 07:18 357 0 gusting 5 26.7
2015-May-03 07:03 324 2 gusting 6 27.2
2015-May-03 06:48 013 2 gusting 5 27.8
2015-May-03 06:33 046 1 gusting 7 28.3
2015-May-03 06:18 073 1 gusting 6 28.3
2015-May-03 06:03 360 2 gusting 7 28.3